Time,TemperatureF,DewpointF,PressureIn,WindDirection,WindDirectionDegrees,WindSpeedMPH,WindSpeedGustMPH,Humidity,HourlyPrecipIn,Conditions,Clouds,dailyrainin,SoftwareType,DateUTC
2013-06-12 00:01:00,56.6,56.0,29.54,West,261,0.0,-999.0,98,-99.99,,,0.00,weatherlink.com 1.10,2013-06-12 04:01:00,
2013-06-12 00:16:00,56.7,56.0,29.54,West,261,0.0,-999.0,98,-99.99,,,0.00,weatherlink.com 1.10,2013-06-12 04:16:00,
2013-06-12 00:31:00,56.8,56.0,29.54,West,261,0.0,-999.0,98,-99.99,,,0.00,weatherlink.com 1.10,2013-06-12 04:31:00,
2013-06-12 00:46:00,56.9,56.0,29.53,West,261,0.0,-999.0,98,-99.99,,,0.00,weatherlink.com 1.10,2013-06-12 04:46:00,
2013-06-12 01:01:00,56.9,56.0,29.53,West,261,0.0,-999.0,98,-99.99,,,0.00,weatherlink.com 1.10,2013-06-12 05:01:00,
2013-06-12 01:16:00,56.8,56.0,29.53,West,261,0.0,-999.0,98,-99.99,,,0.00,weatherlink.com 1.10,2013-06-12 05:16:00,
2013-06-12 01:31:00,56.8,56.0,29.52,West,261,0.0,-999.0,98,-99.99,,,0.00,weatherlink.com 1.10,2013-06-12 05:31:00,
2013-06-12 02:01:00,56.9,56.0,29.52,West,261,0.0,-999.0,98,-99.99,,,0.00,weatherlink.com 1.10,2013-06-12 06:01:00,
2013-06-12 02:16:00,56.9,56.0,29.52,West,261,0.0,-999.0,98,-99.99,,,0.00,weatherlink.com 1.10,2013-06-12 06:16:00,
2013-06-12 02:31:00,56.9,56.0,29.52,West,261,0.0,-999.0,98,-99.99,,,0.00,weatherlink.com 1.10,2013-06-12 06:31:00,
2013-06-12 02:46:00,57.0,57.0,29.51,West,261,0.0,-999.0,98,-99.99,,,0.00,weatherlink.com 1.10,2013-06-12 06:46:00,
2013-06-12 03:01:00,57.0,57.0,29.51,West,261,0.0,-999.0,98,-99.99,,,0.00,weatherlink.com 1.10,2013-06-12 07:01:00,
2013-06-12 03:16:00,56.9,56.0,29.51,West,261,0.0,-999.0,98,-99.99,,,0.00,weatherlink.com 1.10,2013-06-12 07:16:00,
2013-06-12 03:31:00,56.8,56.0,29.51,West,261,0.0,-999.0,98,-99.99,,,0.00,weatherlink.com 1.10,2013-06-12 07:31:00,
2013-06-12 03:46:00,56.7,56.0,29.51,West,260,0.0,-999.0,98,-99.99,,,0.00,weatherlink.com 1.10,2013-06-12 07:46:00,
2013-06-12 04:01:00,56.7,56.0,29.51,West,260,0.0,-999.0,98,-99.99,,,0.00,weatherlink.com 1.10,2013-06-12 08:01:00,
2013-06-12 04:16:00,56.7,56.0,29.52,West,260,0.0,-999.0,98,-99.99,,,0.00,weatherlink.com 1.10,2013-06-12 08:16:00,
2013-06-12 04:31:00,56.8,57.0,29.52,West,260,0.0,-999.0,99,-99.99,,,0.00,weatherlink.com 1.10,2013-06-12 08:31:00,
2013-06-12 04:46:00,56.8,57.0,29.52,West,260,0.0,-999.0,99,-99.99,,,0.00,weatherlink.com 1.10,2013-06-12 08:46:00,
2013-06-12 05:01:00,56.8,57.0,29.53,West,260,0.0,-999.0,99,-99.99,,,0.00,weatherlink.com 1.10,2013-06-12 09:01:00,
2013-06-12 05:16:00,56.9,57.0,29.53,West,263,0.0,-999.0,99,-99.99,,,0.00,weatherlink.com 1.10,2013-06-12 09:16:00,
2013-06-12 05:31:00,56.9,57.0,29.54,WNW,290,0.0,-999.0,99,-99.99,,,0.00,weatherlink.com 1.10,2013-06-12 09:31:00,
2013-06-12 05:46:00,56.8,57.0,29.54,WNW,290,0.0,-999.0,99,-99.99,,,0.00,weatherlink.com 1.10,2013-06-12 09:46:00,
2013-06-12 06:01:00,56.7,57.0,29.54,WNW,290,1.0,-999.0,99,-99.99,,,0.00,weatherlink.com 1.10,2013-06-12 10:01:00,
2013-06-12 06:16:00,56.8,57.0,29.54,NW,319,0.0,-999.0,99,-99.99,,,0.00,weatherlink.com 1.10,2013-06-12 10:16:00,
2013-06-12 06:31:00,56.8,57.0,29.55,NW,317,0.0,-999.0,99,-99.99,,,0.00,weatherlink.com 1.10,2013-06-12 10:31:00,
2013-06-12 06:46:00,57.1,57.0,29.55,NW,312,0.0,-999.0,99,-99.99,,,0.00,weatherlink.com 1.10,2013-06-12 10:46:00,
2013-06-12 07:01:00,57.4,57.0,29.56,NW,312,0.0,-999.0,99,-99.99,,,0.00,weatherlink.com 1.10,2013-06-12 11:01:00,
2013-06-12 07:16:00,57.7,58.0,29.55,NW,317,0.0,-999.0,99,-99.99,,,0.00,weatherlink.com 1.10,2013-06-12 11:16:00,
2013-06-12 07:31:00,58.2,58.0,29.55,NW,316,0.0,-999.0,99,-99.99,,,0.00,weatherlink.com 1.10,2013-06-12 11:31:00,
2013-06-12 07:46:00,58.8,59.0,29.55,NW,312,0.0,-999.0,99,-99.99,,,0.00,weatherlink.com 1.10,2013-06-12 11:46:00,
2013-06-12 08:01:00,59.3,59.0,29.55,NW,309,3.0,-999.0,98,-99.99,,,0.00,weatherlink.com 1.10,2013-06-12 12:01:00,
2013-06-12 08:16:00,59.7,59.0,29.55,NNW,343,3.0,-999.0,96,-99.99,,,0.00,weatherlink.com 1.10,2013-06-12 12:16:00,
2013-06-12 08:31:00,60.4,59.0,29.55,WNW,287,0.0,-999.0,96,-99.99,,,0.00,weatherlink.com 1.10,2013-06-12 12:31:00,
2013-06-12 08:46:00,60.9,59.0,29.55,NW,306,3.0,-999.0,94,-99.99,,,0.00,weatherlink.com 1.10,2013-06-12 12:46:00,
2013-06-12 09:01:00,61.5,59.0,29.55,NNW,333,0.0,-999.0,92,-99.99,,,0.00,weatherlink.com 1.10,2013-06-12 13:01:00,
2013-06-12 09:16:00,61.5,58.0,29.55,WNW,296,0.0,-999.0,88,-99.99,,,0.00,weatherlink.com 1.10,2013-06-12 13:16:00,
2013-06-12 09:31:00,61.6,58.0,29.56,NNW,336,2.0,-999.0,87,-99.99,,,0.00,weatherlink.com 1.10,2013-06-12 13:31:00,
2013-06-12 09:46:00,62.1,58.0,29.55,NNW,348,6.0,-999.0,85,-99.99,,,0.00,weatherlink.com 1.10,2013-06-12 13:46:00,
2013-06-12 10:01:00,63.1,58.0,29.56,NW,314,3.0,-999.0,82,-99.99,,,0.00,weatherlink.com 1.10,2013-06-12 14:01:00,
2013-06-12 10:16:00,63.7,56.0,29.56,NNW,346,10.0,-999.0,77,-99.99,,,0.00,weatherlink.com 1.10,2013-06-12 14:16:00,
2013-06-12 10:31:00,64.3,56.0,29.56,West,280,3.0,-999.0,75,-99.99,,,0.00,weatherlink.com 1.10,2013-06-12 14:31:00,
2013-06-12 10:46:00,64.6,57.0,29.56,WNW,283,12.0,-999.0,76,-99.99,,,0.00,weatherlink.com 1.10,2013-06-12 14:46:00,
2013-06-12 11:01:00,65.2,57.0,29.56,North,9,14.0,-999.0,74,-99.99,,,0.00,weatherlink.com 1.10,2013-06-12 15:01:00,
2013-06-12 11:16:00,66.2,57.0,29.56,NW,317,6.0,-999.0,71,-99.99,,,0.00,weatherlink.com 1.10,2013-06-12 15:16:00,
2013-06-12 11:31:00,66.7,56.0,29.56,WNW,292,8.0,-999.0,69,-99.99,,,0.00,weatherlink.com 1.10,2013-06-12 15:31:00,
2013-06-12 11:46:00,66.7,55.0,29.57,West,263,4.0,-999.0,67,-99.99,,,0.00,weatherlink.com 1.10,2013-06-12 15:46:00,
2013-06-12 12:01:00,67.4,56.0,29.57,NNW,329,0.0,-999.0,67,-99.99,,,0.00,weatherlink.com 1.10,2013-06-12 16:01:00,
2013-06-12 12:16:00,68.4,56.0,29.57,SE,145,4.0,-999.0,65,-99.99,,,0.00,weatherlink.com 1.10,2013-06-12 16:16:00,
2013-06-12 12:31:00,68.3,56.0,29.58,NW,321,8.0,-999.0,64,-99.99,,,0.00,weatherlink.com 1.10,2013-06-12 16:31:00,
2013-06-12 12:46:00,69.5,56.0,29.58,WSW,240,9.0,-999.0,63,-99.99,,,0.00,weatherlink.com 1.10,2013-06-12 16:46:00,
2013-06-12 13:16:00,70.3,55.0,29.58,North,355,4.0,-999.0,59,-99.99,,,0.00,weatherlink.com 1.10,2013-06-12 17:16:00,
2013-06-12 13:31:00,70.2,56.0,29.58,North,350,9.0,-999.0,61,-99.99,,,0.00,weatherlink.com 1.10,2013-06-12 17:31:00,
2013-06-12 13:46:00,70.1,56.0,29.59,North,355,4.0,-999.0,62,-99.99,,,0.00,weatherlink.com 1.10,2013-06-12 17:46:00,
2013-06-12 14:01:00,69.8,56.0,29.59,NNW,338,1.0,-999.0,61,-99.99,,,0.00,weatherlink.com 1.10,2013-06-12 18:01:00,
2013-06-12 14:31:00,69.9,56.0,29.59,WNW,284,2.0,-999.0,62,-99.99,,,0.00,weatherlink.com 1.10,2013-06-12 18:31:00,
2013-06-12 14:46:00,69.9,56.0,29.60,WSW,257,0.0,-999.0,62,-99.99,,,0.00,weatherlink.com 1.10,2013-06-12 18:46:00,
2013-06-12 15:01:00,70.6,56.0,29.60,North,355,4.0,-999.0,60,-99.99,,,0.00,weatherlink.com 1.10,2013-06-12 19:01:00,
2013-06-12 15:16:00,70.8,56.0,29.60,North,351,0.0,-999.0,60,-99.99,,,0.00,weatherlink.com 1.10,2013-06-12 19:16:00,
2013-06-12 15:31:00,71.5,56.0,29.61,NNW,337,4.0,-999.0,59,-99.99,,,0.00,weatherlink.com 1.10,2013-06-12 19:31:00,
2013-06-12 15:46:00,70.7,56.0,29.61,NNW,348,0.0,-999.0,61,-99.99,,,0.00,weatherlink.com 1.10,2013-06-12 19:46:00,
2013-06-12 16:01:00,70.9,56.0,29.62,NW,319,2.0,-999.0,60,-99.99,,,0.00,weatherlink.com 1.10,2013-06-12 20:01:00,
2013-06-12 16:16:00,70.2,56.0,29.63,West,281,0.0,-999.0,62,-99.99,,,0.00,weatherlink.com 1.10,2013-06-12 20:16:00,
2013-06-12 16:31:00,69.7,56.0,29.63,NNE,18,1.0,-999.0,63,-99.99,,,0.00,weatherlink.com 1.10,2013-06-12 20:31:00,
2013-06-12 16:46:00,68.8,57.0,29.64,WNW,289,0.0,-999.0,66,-99.99,,,0.00,weatherlink.com 1.10,2013-06-12 20:46:00,
2013-06-12 17:01:00,67.6,57.0,29.65,NNW,348,3.0,-999.0,70,-99.99,,,0.00,weatherlink.com 1.10,2013-06-12 21:01:00,
2013-06-12 17:16:00,65.6,58.0,29.65,NW,313,0.0,-999.0,77,-99.99,,,0.00,weatherlink.com 1.10,2013-06-12 21:16:00,
2013-06-12 17:31:00,65.6,57.0,29.65,West,269,0.0,-999.0,74,-99.99,,,0.00,weatherlink.com 1.10,2013-06-12 21:31:00,
2013-06-12 17:46:00,66.1,58.0,29.65,WNW,300,0.0,-999.0,74,-99.99,,,0.00,weatherlink.com 1.10,2013-06-12 21:46:00,
2013-06-12 18:01:00,67.0,58.0,29.66,WNW,295,0.0,-999.0,72,-99.99,,,0.00,weatherlink.com 1.10,2013-06-12 22:01:00,
2013-06-12 18:16:00,68.9,57.0,29.66,North,9,0.0,-999.0,67,-99.99,,,0.00,weatherlink.com 1.10,2013-06-12 22:16:00,
2013-06-12 18:31:00,66.7,60.0,29.67,NNE,27,0.0,-999.0,78,-99.99,,,0.01,weatherlink.com 1.10,2013-06-12 22:31:00,
2013-06-12 18:46:00,65.1,60.0,29.67,NW,323,0.0,-999.0,83,-99.99,,,0.01,weatherlink.com 1.10,2013-06-12 22:46:00,
2013-06-12 19:01:00,64.9,60.0,29.69,NNW,343,2.0,-999.0,84,-99.99,,,0.01,weatherlink.com 1.10,2013-06-12 23:01:00,
2013-06-12 19:16:00,64.4,60.0,29.69,NNW,344,0.0,-999.0,85,-99.99,,,0.01,weatherlink.com 1.10,2013-06-12 23:16:00,
2013-06-12 19:31:00,63.7,58.0,29.71,NW,304,1.0,-999.0,82,-99.99,,,0.01,weatherlink.com 1.10,2013-06-12 23:31:00,
2013-06-12 19:46:00,62.8,58.0,29.70,WSW,258,0.0,-999.0,85,-99.99,,,0.01,weatherlink.com 1.10,2013-06-12 23:46:00,
2013-06-12 20:01:00,62.2,58.0,29.71,WSW,258,0.0,-999.0,87,-99.99,,,0.01,weatherlink.com 1.10,2013-06-13 00:01:00,
2013-06-12 20:16:00,61.5,58.0,29.71,WSW,258,0.0,-999.0,89,-99.99,,,0.01,weatherlink.com 1.10,2013-06-13 00:16:00,
2013-06-12 20:31:00,61.2,59.0,29.71,WSW,258,0.0,-999.0,91,-99.99,,,0.01,weatherlink.com 1.10,2013-06-13 00:31:00,
2013-06-12 20:46:00,61.1,59.0,29.72,WSW,258,0.0,-999.0,92,-99.99,,,0.01,weatherlink.com 1.10,2013-06-13 00:46:00,
2013-06-12 21:01:00,61.0,59.0,29.73,WSW,258,0.0,-999.0,93,-99.99,,,0.01,weatherlink.com 1.10,2013-06-13 01:01:00,
2013-06-12 21:16:00,61.0,58.0,29.73,WSW,258,0.0,-999.0,91,-99.99,,,0.01,weatherlink.com 1.10,2013-06-13 01:16:00,
2013-06-12 21:31:00,61.3,58.0,29.74,WSW,258,0.0,-999.0,90,-99.99,,,0.01,weatherlink.com 1.10,2013-06-13 01:31:00,
2013-06-12 21:46:00,61.3,58.0,29.75,WSW,258,0.0,-999.0,89,-99.99,,,0.01,weatherlink.com 1.10,2013-06-13 01:46:00,
2013-06-12 22:01:00,61.2,58.0,29.75,WSW,258,0.0,-999.0,90,-99.99,,,0.01,weatherlink.com 1.10,2013-06-13 02:01:00,
2013-06-12 22:16:00,61.1,59.0,29.75,WSW,258,0.0,-999.0,91,-99.99,,,0.01,weatherlink.com 1.10,2013-06-13 02:16:00,
2013-06-12 22:31:00,61.1,57.0,29.75,WSW,258,0.0,-999.0,87,-99.99,,,0.01,weatherlink.com 1.10,2013-06-13 02:31:00,